UAL2456 KMCO-KIAH

Flight info

Callsign UAL2456
Flight time 2h 8m
Altitude 36000
Route OSPRY1 REMIS ROZZI Y280 LEV LINKK1
Aircraft B739/M-SDE2E3FGHIRWXY/LB1

Departure

Time 2026-05-06 18:28
Airport Orlando International Airport (KMCO)

Arrival

Time 2026-05-06 20:36
Airport George Bush Intercontinental Airport (KIAH)
Time Latitude Longitude Altitude Speed Heading
2026-05-06 17:50 28.42567 -81.31547 101 ft 0 kts 36°
2026-05-06 18:14 28.42565 -81.31549 101 ft 3 kts 35°
2026-05-06 18:14 28.42542 -81.31563 100 ft 4 kts
2026-05-06 18:14 28.42522 -81.31559 99 ft 4 kts 306°
2026-05-06 18:15 28.42514 -81.31532 100 ft 4 kts 271°
2026-05-06 18:15 28.42515 -81.31502 101 ft 4 kts 261°
2026-05-06 18:15 28.42518 -81.31483 98 ft 0 kts 257°
2026-05-06 18:20 28.42518 -81.31487 98 ft 2 kts 257°
2026-05-06 18:21 28.42508 -81.31537 100 ft 11 kts 257°
2026-05-06 18:21 28.42459 -81.31624 101 ft 14 kts 218°
2026-05-06 18:21 28.42380 -81.31681 103 ft 13 kts 212°
2026-05-06 18:21 28.42347 -81.31769 104 ft 13 kts 269°
2026-05-06 18:22 28.42346 -81.31868 106 ft 12 kts 269°
2026-05-06 18:22 28.42349 -81.31965 108 ft 12 kts 287°
2026-05-06 18:22 28.42422 -81.31988 108 ft 12 kts
2026-05-06 18:22 28.42504 -81.31988 108 ft 12 kts 359°
2026-05-06 18:23 28.42592 -81.31989 108 ft 14 kts 359°
2026-05-06 18:23 28.42715 -81.31990 106 ft 21 kts 360°
2026-05-06 18:23 28.42883 -81.31992 102 ft 26 kts 359°
2026-05-06 18:23 28.43062 -81.31994 101 ft 25 kts 360°
2026-05-06 18:24 28.43230 -81.31995 100 ft 23 kts 359°
2026-05-06 18:24 28.43389 -81.31997 101 ft 22 kts 360°
2026-05-06 18:24 28.43544 -81.31998 104 ft 22 kts 359°
2026-05-06 18:24 28.43694 -81.32000 106 ft 21 kts 359°
2026-05-06 18:25 28.43839 -81.32002 108 ft 21 kts 360°
2026-05-06 18:25 28.43981 -81.32004 110 ft 20 kts 359°
2026-05-06 18:25 28.44118 -81.32005 109 ft 19 kts 359°
2026-05-06 18:25 28.44257 -81.32008 107 ft 21 kts 359°
2026-05-06 18:26 28.44410 -81.32008 105 ft 23 kts 359°
2026-05-06 18:26 28.44574 -81.32010 102 ft 25 kts 359°
2026-05-06 18:26 28.44732 -81.32013 101 ft 18 kts 359°
2026-05-06 18:26 28.44819 -81.32037 100 ft 10 kts 297°
2026-05-06 18:27 28.44824 -81.32125 99 ft 12 kts 269°
2026-05-06 18:27 28.44821 -81.32218 100 ft 9 kts 252°
2026-05-06 18:27 28.44776 -81.32229 101 ft 14 kts 180°
2026-05-06 18:27 28.44401 -81.32226 104 ft 93 kts 179°
2026-05-06 18:28 28.43518 -81.32215 104 ft 158 kts 179°
2026-05-06 18:28 28.42339 -81.32204 634 ft 172 kts 179°
2026-05-06 18:28 28.41101 -81.32180 1342 ft 182 kts 177°
2026-05-06 18:28 28.39811 -81.32212 2061 ft 196 kts 193°
2026-05-06 18:29 28.38510 -81.32919 2370 ft 219 kts 208°
2026-05-06 18:29 28.37093 -81.33772 2706 ft 238 kts 206°
2026-05-06 18:29 28.35547 -81.34678 3112 ft 260 kts 207°
2026-05-06 18:29 28.34051 -81.35850 3872 ft 265 kts 226°
2026-05-06 18:30 28.32818 -81.37429 4683 ft 269 kts 229°
2026-05-06 18:30 28.31594 -81.39075 5421 ft 276 kts 230°
2026-05-06 18:30 28.30370 -81.40789 6119 ft 283 kts 231°
2026-05-06 18:30 28.29144 -81.42560 6726 ft 288 kts 232°
2026-05-06 18:31 28.27920 -81.44352 7012 ft 288 kts 232°
2026-05-06 18:31 28.26738 -81.46179 6987 ft 286 kts 248°
2026-05-06 18:31 28.26404 -81.48367 7042 ft 285 kts 273°
2026-05-06 18:31 28.26518 -81.50644 7024 ft 292 kts 276°
2026-05-06 18:32 28.26689 -81.52923 7026 ft 289 kts 276°
2026-05-06 18:32 28.26874 -81.55189 7002 ft 285 kts 276°
2026-05-06 18:32 28.27057 -81.57410 7038 ft 282 kts 276°
2026-05-06 18:32 28.27233 -81.59618 7278 ft 288 kts 276°
2026-05-06 18:33 28.27411 -81.61892 8006 ft 289 kts 276°
2026-05-06 18:33 28.27586 -81.64156 8846 ft 288 kts 276°
2026-05-06 18:33 28.27760 -81.66436 9572 ft 292 kts 276°
2026-05-06 18:33 28.27936 -81.68747 10279 ft 295 kts 276°
2026-05-06 18:34 28.28111 -81.71073 10983 ft 297 kts 276°
2026-05-06 18:34 28.28288 -81.73414 11685 ft 299 kts 277°
2026-05-06 18:34 28.28466 -81.75774 12388 ft 302 kts 277°
2026-05-06 18:34 28.28644 -81.78148 13100 ft 304 kts 277°
2026-05-06 18:35 28.28823 -81.80543 13782 ft 306 kts 277°
2026-05-06 18:35 28.29003 -81.82961 14401 ft 308 kts 277°
2026-05-06 18:35 28.29183 -81.85385 15053 ft 309 kts 277°
2026-05-06 18:35 28.29362 -81.87819 15643 ft 312 kts 276°
2026-05-06 18:36 28.29317 -81.90355 15856 ft 332 kts 264°
2026-05-06 18:36 28.28877 -81.92972 16255 ft 342 kts 261°
2026-05-06 18:36 28.28365 -81.95616 16878 ft 343 kts 260°
2026-05-06 18:36 28.27838 -81.98260 17523 ft 343 kts 260°
2026-05-06 18:37 28.27312 -82.00911 18084 ft 345 kts 260°
2026-05-06 18:37 28.26965 -82.02676 18436 ft 347 kts 260°
2026-05-06 18:37 28.26273 -82.06226 19090 ft 349 kts 260°
2026-05-06 18:37 28.25752 -82.08917 19618 ft 349 kts 261°
2026-05-06 18:38 28.25232 -82.11614 20152 ft 350 kts 261°
2026-05-06 18:38 28.24708 -82.14346 20669 ft 351 kts 261°
2026-05-06 18:38 28.24195 -82.17019 21172 ft 352 kts 261°
2026-05-06 18:38 28.23674 -82.19734 21679 ft 353 kts 261°
2026-05-06 18:39 28.23151 -82.22453 22151 ft 354 kts 261°
2026-05-06 18:39 28.22626 -82.25186 22601 ft 355 kts 261°
2026-05-06 18:39 28.22098 -82.27931 23056 ft 356 kts 261°
2026-05-06 18:40 28.21037 -82.33432 23898 ft 358 kts 261°
2026-05-06 18:40 28.20503 -82.36198 24258 ft 360 kts 261°
2026-05-06 18:40 28.19966 -82.38974 24607 ft 361 kts 261°
2026-05-06 18:40 28.19427 -82.41759 24968 ft 362 kts 261°
2026-05-06 18:41 28.18886 -82.44554 25338 ft 364 kts 261°
2026-05-06 18:41 28.18342 -82.47356 25693 ft 365 kts 261°
2026-05-06 18:41 28.17794 -82.50177 26052 ft 367 kts 261°
2026-05-06 18:41 28.17245 -82.53005 26399 ft 368 kts 261°
2026-05-06 18:42 28.16693 -82.55839 26742 ft 370 kts 261°
2026-05-06 18:42 28.16136 -82.58696 27084 ft 371 kts 261°
2026-05-06 18:42 28.15579 -82.61551 27423 ft 373 kts 261°
2026-05-06 18:42 28.15017 -82.64428 27748 ft 374 kts 261°
2026-05-06 18:43 28.14453 -82.67313 28087 ft 376 kts 261°
2026-05-06 18:43 28.13884 -82.70219 28409 ft 377 kts 261°
2026-05-06 18:43 28.13508 -82.72139 28624 ft 379 kts 261°
2026-05-06 18:43 28.12741 -82.76046 29037 ft 381 kts 261°
2026-05-06 18:44 28.12165 -82.78977 29359 ft 382 kts 261°
2026-05-06 18:44 28.11585 -82.81926 29669 ft 384 kts 261°
2026-05-06 18:44 28.11200 -82.83885 29859 ft 385 kts 260°
2026-05-06 18:44 28.10615 -82.86851 30154 ft 387 kts 260°
2026-05-06 18:45 28.10030 -82.89828 30400 ft 388 kts 261°
2026-05-06 18:45 28.09458 -82.92824 30654 ft 389 kts 261°
2026-05-06 18:45 28.08894 -82.95827 30905 ft 391 kts 261°
2026-05-06 18:45 28.08330 -82.98843 31151 ft 392 kts 261°
2026-05-06 18:46 28.07765 -83.01862 31383 ft 393 kts 261°
2026-05-06 18:46 28.07195 -83.04896 31618 ft 395 kts 261°
2026-05-06 18:46 28.06620 -83.07944 31840 ft 396 kts 261°
2026-05-06 18:46 28.06043 -83.10997 32063 ft 398 kts 261°
2026-05-06 18:47 28.05462 -83.14064 32290 ft 399 kts 261°
2026-05-06 18:47 28.04879 -83.17137 32514 ft 400 kts 261°
2026-05-06 18:47 28.04293 -83.20219 32761 ft 401 kts 261°
2026-05-06 18:47 28.03707 -83.23300 32998 ft 401 kts 261°
2026-05-06 18:48 28.03117 -83.26395 33210 ft 403 kts 261°
2026-05-06 18:48 28.02526 -83.29499 33415 ft 404 kts 261°
2026-05-06 18:48 28.01931 -83.32615 33618 ft 406 kts 261°
2026-05-06 18:48 28.01334 -83.35739 33815 ft 407 kts 261°
2026-05-06 18:49 28.00734 -83.38871 34011 ft 408 kts 261°
2026-05-06 18:49 28.00152 -83.42012 34190 ft 408 kts 263°
2026-05-06 18:49 27.99846 -83.45199 34342 ft 407 kts 268°
2026-05-06 18:49 27.99669 -83.48406 34507 ft 408 kts 268°
2026-05-06 18:50 27.99500 -83.51612 34701 ft 408 kts 268°
2026-05-06 18:50 27.99330 -83.54807 34947 ft 407 kts 268°
2026-05-06 18:50 27.99156 -83.57994 35187 ft 405 kts 268°
2026-05-06 18:50 27.98977 -83.61177 35388 ft 405 kts 268°
2026-05-06 18:51 27.98795 -83.64358 35575 ft 405 kts 268°
2026-05-06 18:51 27.98611 -83.67530 35784 ft 404 kts 268°
2026-05-06 18:51 27.98425 -83.70696 35991 ft 403 kts 268°
2026-05-06 18:52 27.98049 -83.77050 36074 ft 407 kts 268°
2026-05-06 18:52 27.97669 -83.83437 36087 ft 411 kts 268°
2026-05-06 18:53 27.97279 -83.89906 36084 ft 414 kts 268°
2026-05-06 18:53 27.96885 -83.96411 36079 ft 415 kts 268°
2026-05-06 18:54 27.96487 -84.02919 36077 ft 414 kts 268°
2026-05-06 18:54 27.96087 -84.09405 36078 ft 413 kts 268°
2026-05-06 18:55 27.95685 -84.15873 36078 ft 411 kts 268°
2026-05-06 18:55 27.95283 -84.22303 36076 ft 409 kts 268°
2026-05-06 18:56 27.94880 -84.28702 36076 ft 407 kts 268°
2026-05-06 18:56 27.94475 -84.35084 36077 ft 406 kts 268°
2026-05-06 18:57 27.94069 -84.41452 36078 ft 406 kts 268°
2026-05-06 18:57 27.93659 -84.47816 36076 ft 406 kts 268°
2026-05-06 18:58 27.93246 -84.54187 36083 ft 407 kts 268°
2026-05-06 18:58 27.92829 -84.60576 36079 ft 408 kts 267°
2026-05-06 18:59 27.92407 -84.66986 36078 ft 409 kts 267°
2026-05-06 18:59 27.91982 -84.73414 36074 ft 411 kts 267°
2026-05-06 19:00 27.91552 -84.79859 36078 ft 412 kts 267°
2026-05-06 19:00 27.91118 -84.86318 36078 ft 412 kts 267°
2026-05-06 19:01 27.90680 -84.92784 36075 ft 412 kts 267°
2026-05-06 19:01 27.90240 -84.99251 36074 ft 412 kts 267°
2026-05-06 19:02 27.89797 -85.05705 36071 ft 412 kts 267°
2026-05-06 19:02 27.89352 -85.12155 36064 ft 411 kts 267°
2026-05-06 19:03 27.88905 -85.18594 36070 ft 411 kts 267°
2026-05-06 19:03 27.88777 -85.25022 36082 ft 408 kts 276°
2026-05-06 19:04 27.89978 -85.31236 36075 ft 409 kts 287°
2026-05-06 19:04 27.91845 -85.37310 36069 ft 409 kts 288°
2026-05-06 19:05 27.93720 -85.43385 36067 ft 409 kts 288°
2026-05-06 19:05 27.95577 -85.49477 36071 ft 410 kts 288°
2026-05-06 19:06 27.97423 -85.55579 36069 ft 410 kts 287°
2026-05-06 19:06 27.99265 -85.61692 36069 ft 411 kts 287°
2026-05-06 19:07 28.01105 -85.67809 36067 ft 411 kts 287°
2026-05-06 19:07 28.02946 -85.73939 36071 ft 411 kts 287°
2026-05-06 19:08 28.04782 -85.80065 36074 ft 411 kts 287°
2026-05-06 19:08 28.06614 -85.86189 36067 ft 411 kts 287°
2026-05-06 19:09 28.08445 -85.92317 36067 ft 410 kts 287°
2026-05-06 19:09 28.10268 -85.98434 36070 ft 410 kts 287°
2026-05-06 19:10 28.12088 -86.04549 36066 ft 410 kts 287°
2026-05-06 19:10 28.13904 -86.10662 36063 ft 409 kts 287°
2026-05-06 19:11 28.15713 -86.16766 36065 ft 409 kts 287°
2026-05-06 19:11 28.17521 -86.22874 36063 ft 408 kts 287°
2026-05-06 19:12 28.19324 -86.28979 36062 ft 408 kts 287°
2026-05-06 19:12 28.21123 -86.35078 36065 ft 408 kts 287°
2026-05-06 19:13 28.22918 -86.41178 36061 ft 408 kts 287°
2026-05-06 19:13 28.24711 -86.47283 36060 ft 408 kts 287°
2026-05-06 19:14 28.26489 -86.53348 36053 ft 408 kts 287°
2026-05-06 19:14 28.28275 -86.59450 36062 ft 408 kts 287°
2026-05-06 19:15 28.30071 -86.65596 36060 ft 408 kts 287°
2026-05-06 19:15 28.31854 -86.71707 36057 ft 408 kts 287°
2026-05-06 19:16 28.33628 -86.77764 36056 ft 407 kts 287°
2026-05-06 19:16 28.35416 -86.83867 36058 ft 407 kts 287°
2026-05-06 19:17 28.37198 -86.89964 36052 ft 407 kts 287°
2026-05-06 19:17 28.38975 -86.96059 36058 ft 406 kts 286°
2026-05-06 19:18 28.40746 -87.02149 36053 ft 406 kts 287°
2026-05-06 19:18 28.42514 -87.08236 36042 ft 406 kts 286°
2026-05-06 19:19 28.44277 -87.14318 36050 ft 405 kts 286°
2026-05-06 19:19 28.46038 -87.20403 36043 ft 405 kts 286°
2026-05-06 19:20 28.47792 -87.26478 36043 ft 405 kts 286°
2026-05-06 19:20 28.49544 -87.32556 36048 ft 404 kts 286°
2026-05-06 19:21 28.51292 -87.38634 36043 ft 404 kts 286°
2026-05-06 19:21 28.53038 -87.44711 36037 ft 404 kts 286°
2026-05-06 19:22 28.54780 -87.50791 36034 ft 404 kts 286°
2026-05-06 19:22 28.56521 -87.56874 36031 ft 405 kts 286°
2026-05-06 19:23 28.58259 -87.62963 36031 ft 405 kts 286°
2026-05-06 19:23 28.59995 -87.69055 36035 ft 405 kts 286°
2026-05-06 19:24 28.61730 -87.75153 36030 ft 405 kts 286°
2026-05-06 19:24 28.63463 -87.81258 36024 ft 405 kts 286°
2026-05-06 19:25 28.65194 -87.87366 36025 ft 406 kts 286°
2026-05-06 19:25 28.66923 -87.93478 36022 ft 406 kts 285°
2026-05-06 19:26 28.68649 -87.99595 36022 ft 406 kts 285°
2026-05-06 19:26 28.70372 -88.05707 36024 ft 406 kts 285°
2026-05-06 19:27 28.72091 -88.11827 36035 ft 405 kts 285°
2026-05-06 19:27 28.73805 -88.17946 36029 ft 405 kts 285°
2026-05-06 19:28 28.75514 -88.24063 36019 ft 405 kts 285°
2026-05-06 19:28 28.77220 -88.30182 36022 ft 405 kts 285°
2026-05-06 19:29 28.78923 -88.36297 36015 ft 405 kts 285°
2026-05-06 19:29 28.80621 -88.42408 36017 ft 405 kts 285°
2026-05-06 19:30 28.82032 -88.47496 36016 ft 404 kts 285°
2026-05-06 19:30 28.83725 -88.53612 36015 ft 404 kts 285°
2026-05-06 19:31 28.85414 -88.59726 36014 ft 404 kts 285°
2026-05-06 19:31 28.87945 -88.68904 36013 ft 404 kts 285°
2026-05-06 19:32 28.89409 -88.75084 36017 ft 403 kts 281°
2026-05-06 19:32 28.90712 -88.81308 36007 ft 403 kts 281°
2026-05-06 19:33 28.92009 -88.87528 36006 ft 403 kts 281°
2026-05-06 19:33 28.93320 -88.93748 36006 ft 403 kts 281°
2026-05-06 19:34 28.94628 -88.99930 36007 ft 403 kts 281°
2026-05-06 19:34 28.95943 -89.06150 36005 ft 403 kts 281°
2026-05-06 19:35 28.97256 -89.12377 36003 ft 403 kts 281°
2026-05-06 19:35 28.98564 -89.18599 36003 ft 403 kts 281°
2026-05-06 19:36 28.99871 -89.24828 36000 ft 403 kts 281°
2026-05-06 19:36 29.01174 -89.31052 35998 ft 403 kts 281°
2026-05-06 19:37 29.02473 -89.37273 35999 ft 403 kts 281°
2026-05-06 19:37 29.03770 -89.43500 35994 ft 402 kts 281°
2026-05-06 19:38 29.05062 -89.49720 35992 ft 402 kts 281°
2026-05-06 19:38 29.06351 -89.55939 35994 ft 402 kts 281°
2026-05-06 19:39 29.07637 -89.62161 35990 ft 402 kts 281°
2026-05-06 19:39 29.08918 -89.68374 35991 ft 402 kts 281°
2026-05-06 19:40 29.10197 -89.74593 35990 ft 402 kts 280°
2026-05-06 19:40 29.11473 -89.80810 35988 ft 401 kts 280°
2026-05-06 19:41 29.12745 -89.87026 35988 ft 401 kts 280°
2026-05-06 19:41 29.14014 -89.93240 35987 ft 401 kts 280°
2026-05-06 19:42 29.15278 -89.99447 35987 ft 401 kts 280°
2026-05-06 19:42 29.16540 -90.05657 35987 ft 401 kts 280°
2026-05-06 19:43 29.17757 -90.11879 35987 ft 400 kts 278°
2026-05-06 19:43 29.18598 -90.18149 35991 ft 399 kts 275°
2026-05-06 19:44 29.19343 -90.24432 35988 ft 398 kts 276°
2026-05-06 19:44 29.20112 -90.30715 35987 ft 398 kts 276°
2026-05-06 19:45 29.20899 -90.36984 35986 ft 398 kts 276°
2026-05-06 19:45 29.21691 -90.43254 35983 ft 398 kts 276°
2026-05-06 19:46 29.22483 -90.49524 35979 ft 398 kts 276°
2026-05-06 19:46 29.23270 -90.55793 35978 ft 397 kts 276°
2026-05-06 19:47 29.24048 -90.62008 35971 ft 397 kts 276°
2026-05-06 19:47 29.24830 -90.68284 35969 ft 397 kts 276°
2026-05-06 19:48 29.25608 -90.74549 35966 ft 397 kts 276°
2026-05-06 19:48 29.26381 -90.80802 35964 ft 397 kts 276°
2026-05-06 19:49 29.27152 -90.87057 35971 ft 397 kts 275°
2026-05-06 19:49 29.27920 -90.93318 35964 ft 397 kts 275°
2026-05-06 19:50 29.28685 -90.99574 35965 ft 396 kts 275°
2026-05-06 19:50 29.29446 -91.05825 35965 ft 396 kts 275°
2026-05-06 19:51 29.30204 -91.12077 35965 ft 396 kts 275°
2026-05-06 19:51 29.30958 -91.18319 35961 ft 396 kts 275°
2026-05-06 19:52 29.31710 -91.24568 35959 ft 396 kts 275°
2026-05-06 19:52 29.32456 -91.30811 35959 ft 395 kts 275°
2026-05-06 19:53 29.33199 -91.37052 35961 ft 395 kts 275°
2026-05-06 19:53 29.33939 -91.43298 35960 ft 395 kts 275°
2026-05-06 19:54 29.34676 -91.49537 35956 ft 395 kts 275°
2026-05-06 19:54 29.35411 -91.55783 35952 ft 395 kts 275°
2026-05-06 19:55 29.36142 -91.62024 35955 ft 395 kts 275°
2026-05-06 19:55 29.36870 -91.68260 35951 ft 395 kts 275°
2026-05-06 19:56 29.37595 -91.74500 35948 ft 395 kts 275°
2026-05-06 19:56 29.38317 -91.80739 35944 ft 395 kts 275°
2026-05-06 19:57 29.39031 -91.86939 35942 ft 394 kts 275°
2026-05-06 19:57 29.39748 -91.93181 35941 ft 394 kts 275°
2026-05-06 19:58 29.40459 -91.99410 35936 ft 394 kts 275°
2026-05-06 19:58 29.41170 -92.05652 35936 ft 394 kts 274°
2026-05-06 19:59 29.41876 -92.11888 35931 ft 394 kts 274°
2026-05-06 19:59 29.42580 -92.18130 35928 ft 394 kts 274°
2026-05-06 20:00 29.43281 -92.24368 35927 ft 394 kts 274°
2026-05-06 20:00 29.43981 -92.30627 35926 ft 395 kts 274°
2026-05-06 20:01 29.44673 -92.36831 35925 ft 395 kts 274°
2026-05-06 20:01 29.45366 -92.43078 35920 ft 395 kts 274°
2026-05-06 20:02 29.45924 -92.49337 35919 ft 393 kts 271°
2026-05-06 20:02 29.46191 -92.55610 35916 ft 393 kts 270°
2026-05-06 20:03 29.46440 -92.61879 35919 ft 393 kts 270°
2026-05-06 20:03 29.46715 -92.68145 35920 ft 393 kts 270°
2026-05-06 20:04 29.47001 -92.74422 35916 ft 393 kts 270°
2026-05-06 20:04 29.47284 -92.80655 35914 ft 393 kts 270°
2026-05-06 20:05 29.47567 -92.86934 35911 ft 393 kts 270°
2026-05-06 20:05 29.47846 -92.93202 35913 ft 393 kts 270°
2026-05-06 20:06 29.48123 -92.99477 35905 ft 393 kts 270°
2026-05-06 20:06 29.48260 -93.02618 35590 ft 399 kts 270°
2026-05-06 20:06 29.48398 -93.05816 35198 ft 399 kts 270°
2026-05-06 20:07 29.48535 -93.08985 34645 ft 395 kts 270°
2026-05-06 20:07 29.48663 -93.12074 34133 ft 390 kts 270°
2026-05-06 20:07 29.48787 -93.15169 33555 ft 386 kts 270°
2026-05-06 20:07 29.48909 -93.18227 33005 ft 381 kts 270°
2026-05-06 20:08 29.49028 -93.21249 32467 ft 376 kts 270°
2026-05-06 20:08 29.49146 -93.24234 31963 ft 372 kts 270°
2026-05-06 20:08 29.49262 -93.27176 31456 ft 367 kts 270°
2026-05-06 20:08 29.49376 -93.30085 30981 ft 363 kts 269°
2026-05-06 20:09 29.49487 -93.32964 30488 ft 359 kts 269°
2026-05-06 20:09 29.49598 -93.35813 30011 ft 355 kts 269°
2026-05-06 20:09 29.49706 -93.38631 29464 ft 352 kts 269°
2026-05-06 20:09 29.49813 -93.41429 28942 ft 348 kts 269°
2026-05-06 20:10 29.49918 -93.44181 28478 ft 343 kts 269°
2026-05-06 20:10 29.50020 -93.46872 28002 ft 339 kts 269°
2026-05-06 20:10 29.50121 -93.49563 27542 ft 336 kts 269°
2026-05-06 20:10 29.50221 -93.52232 27081 ft 332 kts 268°
2026-05-06 20:11 29.50319 -93.54871 26636 ft 329 kts 268°
2026-05-06 20:11 29.50416 -93.57492 26192 ft 326 kts 268°
2026-05-06 20:11 29.50512 -93.60081 25754 ft 324 kts 268°
2026-05-06 20:11 29.50606 -93.62659 25322 ft 322 kts 268°
2026-05-06 20:12 29.50699 -93.65218 24891 ft 320 kts 268°
2026-05-06 20:12 29.50791 -93.67762 24464 ft 318 kts 268°
2026-05-06 20:12 29.50882 -93.70296 24025 ft 317 kts 268°
2026-05-06 20:12 29.50972 -93.72791 23598 ft 317 kts 268°
2026-05-06 20:13 29.51062 -93.75318 23122 ft 316 kts 268°
2026-05-06 20:13 29.51151 -93.77831 22658 ft 314 kts 268°
2026-05-06 20:13 29.51239 -93.80326 22218 ft 311 kts 268°
2026-05-06 20:13 29.51326 -93.82799 21795 ft 309 kts 268°
2026-05-06 20:14 29.51412 -93.85258 21380 ft 307 kts 268°
2026-05-06 20:14 29.51498 -93.87696 20973 ft 305 kts 268°
2026-05-06 20:14 29.51582 -93.90124 20573 ft 303 kts 268°
2026-05-06 20:14 29.51665 -93.92539 20171 ft 301 kts 268°
2026-05-06 20:15 29.51746 -93.94908 19774 ft 300 kts 267°
2026-05-06 20:15 29.51828 -93.97331 19115 ft 308 kts 267°
2026-05-06 20:15 29.51912 -93.99782 18633 ft 309 kts 268°
2026-05-06 20:15 29.51997 -94.02246 18220 ft 308 kts 267°
2026-05-06 20:16 29.52082 -94.04707 17768 ft 307 kts 267°
2026-05-06 20:16 29.52138 -94.06328 17478 ft 306 kts 267°
2026-05-06 20:16 29.52222 -94.08764 17063 ft 304 kts 267°
2026-05-06 20:16 29.52305 -94.11186 16666 ft 302 kts 267°
2026-05-06 20:17 29.52386 -94.13585 16358 ft 297 kts 267°
2026-05-06 20:17 29.52466 -94.15954 15946 ft 296 kts 267°
2026-05-06 20:17 29.52544 -94.18290 15598 ft 293 kts 267°
2026-05-06 20:17 29.52621 -94.20624 15222 ft 291 kts 267°
2026-05-06 20:18 29.52697 -94.22943 14838 ft 290 kts 267°
2026-05-06 20:18 29.52773 -94.25236 14605 ft 284 kts 267°
2026-05-06 20:18 29.52847 -94.27488 14427 ft 279 kts 266°
2026-05-06 20:18 29.53146 -94.29694 14249 ft 286 kts 282°
2026-05-06 20:19 29.54092 -94.31792 13882 ft 304 kts 296°
2026-05-06 20:19 29.55275 -94.33834 13466 ft 309 kts 297°
2026-05-06 20:19 29.56490 -94.35868 13092 ft 307 kts 297°
2026-05-06 20:19 29.57677 -94.37857 12728 ft 305 kts 297°
2026-05-06 20:20 29.58866 -94.39867 12367 ft 302 kts 297°
2026-05-06 20:20 29.60038 -94.41863 12011 ft 300 kts 297°
2026-05-06 20:20 29.61197 -94.43848 11659 ft 298 kts 297°
2026-05-06 20:20 29.62347 -94.45825 11312 ft 296 kts 297°
2026-05-06 20:21 29.63487 -94.47787 10963 ft 294 kts 297°
2026-05-06 20:21 29.64621 -94.49742 10616 ft 293 kts 297°
2026-05-06 20:21 29.65734 -94.51661 10279 ft 292 kts 297°
2026-05-06 20:21 29.66840 -94.53565 10124 ft 283 kts 297°
2026-05-06 20:22 29.68158 -94.55242 9954 ft 286 kts 317°
2026-05-06 20:22 29.69819 -94.56496 9810 ft 284 kts 321°
2026-05-06 20:22 29.71495 -94.57690 9636 ft 284 kts 322°
2026-05-06 20:22 29.73181 -94.58885 9464 ft 285 kts 322°
2026-05-06 20:23 29.74875 -94.60093 9294 ft 288 kts 322°
2026-05-06 20:23 29.76576 -94.61311 9122 ft 287 kts 322°
2026-05-06 20:23 29.78266 -94.62526 8947 ft 286 kts 322°
2026-05-06 20:23 29.79952 -94.63742 8780 ft 285 kts 322°
2026-05-06 20:24 29.81628 -94.64954 8609 ft 284 kts 322°
2026-05-06 20:24 29.83301 -94.66166 8446 ft 283 kts 322°
2026-05-06 20:24 29.84963 -94.67372 8281 ft 282 kts 322°
2026-05-06 20:24 29.86617 -94.68572 8118 ft 281 kts 323°
2026-05-06 20:25 29.88267 -94.69771 7951 ft 279 kts 323°
2026-05-06 20:25 29.89907 -94.70962 7785 ft 278 kts 323°
2026-05-06 20:25 29.91539 -94.72149 7628 ft 275 kts 323°
2026-05-06 20:25 29.93135 -94.73308 7464 ft 267 kts 323°
2026-05-06 20:26 29.94685 -94.74435 7303 ft 259 kts 323°
2026-05-06 20:26 29.96192 -94.75530 7159 ft 252 kts 323°
2026-05-06 20:26 29.97649 -94.76596 6986 ft 244 kts 320°
2026-05-06 20:26 29.98705 -94.77984 6786 ft 227 kts 292°
2026-05-06 20:27 29.99430 -94.79589 6610 ft 225 kts 295°
2026-05-06 20:27 30.00242 -94.81189 6168 ft 237 kts 297°
2026-05-06 20:27 30.00735 -94.82950 5794 ft 230 kts 268°
2026-05-06 20:27 30.00702 -94.84785 5472 ft 229 kts 266°
2026-05-06 20:28 30.00684 -94.86629 5143 ft 231 kts 268°
2026-05-06 20:28 30.00680 -94.88456 5046 ft 224 kts 267°
2026-05-06 20:28 30.00682 -94.90196 5025 ft 207 kts 267°
2026-05-06 20:28 30.00688 -94.91814 5014 ft 199 kts 267°
2026-05-06 20:29 30.00713 -94.93393 5022 ft 196 kts 267°
2026-05-06 20:29 30.00730 -94.94970 5041 ft 197 kts 267°
2026-05-06 20:29 30.00738 -94.96560 5040 ft 199 kts 267°
2026-05-06 20:29 30.00740 -94.98136 5027 ft 199 kts 266°
2026-05-06 20:30 30.00740 -94.99739 5019 ft 200 kts 266°
2026-05-06 20:30 30.00753 -95.02890 4975 ft 193 kts 268°
2026-05-06 20:30 30.00768 -95.04431 4761 ft 191 kts 266°
2026-05-06 20:31 30.00772 -95.05947 4508 ft 186 kts 266°
2026-05-06 20:31 30.00771 -95.07424 4288 ft 183 kts 266°
2026-05-06 20:31 30.00767 -95.08892 4051 ft 182 kts 266°
2026-05-06 20:31 30.00764 -95.10320 3836 ft 173 kts 265°
2026-05-06 20:32 30.00761 -95.11676 3609 ft 167 kts 265°
2026-05-06 20:32 30.00755 -95.13032 3397 ft 170 kts 266°
2026-05-06 20:32 30.00751 -95.14403 3172 ft 172 kts 266°
2026-05-06 20:32 30.00747 -95.15786 2953 ft 173 kts 266°
2026-05-06 20:33 30.00744 -95.17169 2730 ft 172 kts 266°
2026-05-06 20:33 30.00742 -95.18524 2511 ft 170 kts 266°
2026-05-06 20:33 30.00739 -95.19886 2289 ft 169 kts 267°
2026-05-06 20:33 30.00735 -95.21263 2072 ft 172 kts 266°
2026-05-06 20:34 30.00734 -95.22611 1839 ft 162 kts 265°
2026-05-06 20:34 30.00732 -95.23861 1630 ft 149 kts 266°
2026-05-06 20:34 30.00730 -95.25015 1467 ft 142 kts 265°
2026-05-06 20:34 30.00726 -95.26156 1283 ft 144 kts 265°
2026-05-06 20:35 30.00725 -95.27316 1094 ft 144 kts 264°
2026-05-06 20:35 30.00721 -95.28491 889 ft 152 kts 265°
2026-05-06 20:35 30.00732 -95.29697 692 ft 153 kts 268°
2026-05-06 20:35 30.00721 -95.30906 529 ft 150 kts 268°
2026-05-06 20:36 30.00717 -95.32125 283 ft 151 kts 268°
2026-05-06 20:36 30.00719 -95.33338 110 ft 150 kts 267°
2026-05-06 20:36 30.00718 -95.34356 105 ft 97 kts 270°
2026-05-06 20:36 30.00718 -95.34884 105 ft 35 kts 270°
2026-05-06 20:37 30.00718 -95.35099 106 ft 26 kts 270°
2026-05-06 20:37 30.00703 -95.35301 105 ft 24 kts 259°
2026-05-06 20:37 30.00652 -95.35457 105 ft 16 kts 242°
2026-05-06 20:37 30.00598 -95.35556 106 ft 13 kts 236°
2026-05-06 20:38 30.00547 -95.35644 106 ft 13 kts 223°
2026-05-06 20:38 30.00460 -95.35659 106 ft 13 kts 176°
2026-05-06 20:38 30.00336 -95.35655 106 ft 22 kts 179°
2026-05-06 20:38 30.00172 -95.35592 106 ft 28 kts 137°
2026-05-06 20:39 30.00033 -95.35497 106 ft 23 kts 163°
2026-05-06 20:39 29.99877 -95.35485 106 ft 23 kts 180°
2026-05-06 20:39 29.99708 -95.35485 106 ft 24 kts 180°
2026-05-06 20:39 29.99543 -95.35485 106 ft 23 kts 180°
2026-05-06 20:40 29.99387 -95.35484 106 ft 22 kts 180°
2026-05-06 20:40 29.99246 -95.35484 106 ft 16 kts 180°
2026-05-06 20:40 29.99178 -95.35428 106 ft 12 kts 95°
2026-05-06 20:40 29.99177 -95.35329 106 ft 13 kts 91°
2026-05-06 20:41 29.99176 -95.35207 106 ft 16 kts 90°
2026-05-06 20:41 29.99176 -95.35073 106 ft 18 kts 90°
2026-05-06 20:41 29.99177 -95.34928 106 ft 18 kts 90°
2026-05-06 20:41 29.99177 -95.34776 106 ft 19 kts 90°
2026-05-06 20:42 29.99177 -95.34615 106 ft 21 kts 90°
2026-05-06 20:42 29.99177 -95.34439 106 ft 23 kts 89°
2026-05-06 20:42 29.99177 -95.34252 106 ft 24 kts 90°
2026-05-06 20:42 29.99177 -95.34053 106 ft 25 kts 90°
2026-05-06 20:43 29.99178 -95.33848 106 ft 25 kts 90°
2026-05-06 20:43 29.99178 -95.33652 106 ft 23 kts 90°
2026-05-06 20:43 29.99178 -95.33471 106 ft 22 kts 90°
2026-05-06 20:43 29.99178 -95.33295 106 ft 22 kts 90°
2026-05-06 20:44 29.99178 -95.33125 106 ft 21 kts 90°
2026-05-06 20:44 29.99140 -95.33026 106 ft 13 kts 174°
2026-05-06 20:44 29.99092 -95.33089 106 ft 12 kts 268°
2026-05-06 20:44 29.99091 -95.33197 106 ft 16 kts 269°
2026-05-06 20:45 29.99090 -95.33338 106 ft 19 kts 270°
2026-05-06 20:45 29.99090 -95.33508 106 ft 23 kts 269°
2026-05-06 20:45 29.99089 -95.33704 106 ft 26 kts 270°
2026-05-06 20:45 29.99089 -95.33896 106 ft 19 kts 270°
2026-05-06 20:46 29.99088 -95.34047 106 ft 18 kts 270°
2026-05-06 20:46 29.99086 -95.34187 106 ft 11 kts 269°
2026-05-06 20:46 29.99064 -95.34257 105 ft 9 kts 209°
2026-05-06 20:46 29.99026 -95.34260 106 ft 5 kts 179°
2026-05-06 20:47 29.99020 -95.34260 106 ft 0 kts 179°
2026-05-06 20:47 29.99001 -95.34260 106 ft 5 kts 179°
2026-05-06 20:48 29.98964 -95.34260 106 ft 5 kts 179°
2026-05-06 20:48 29.98930 -95.34253 106 ft 5 kts 152°
2026-05-06 20:48 29.98908 -95.34218 105 ft 4 kts 119°
2026-05-06 20:48 29.98902 -95.34205 106 ft 1 kts 119°
2026-05-06 20:49 29.98901 -95.34203 105 ft 0 kts 118°
2026-05-06 20:49 29.98900 -95.34200 105 ft 0 kts 118°